Meteo Giornale » Osservazioni meteo Stati Uniti (USA) » St Petersburg-Clearwater Int
ore: 09:53 - Osservazioni Meteo St Petersburg-Clearwater Int
Lat. 27° 54' N Lon. 82° 41' W Alt. 3 metri s.l.m.
28 °C
Sereno
Temp. 24 Ore
26 °C
32 °C
Est/Nord-Est
9.3 Km/h
Dew point 25 °C
Umidità 83 %
Visibilità 10 Km
Il sole sorge alle ore 07:09
Il sole tramonta alle ore 19:51
| Data e Ora | Cielo e Fenomeni | T °C | DP °C | Um. % | Pres. hPa | Vis. km | Vento km/h | |
|---|---|---|---|---|---|---|---|---|
| Oggi h: 09:53 | Sereno | 28 | 25 | 83 | 1017 | 10 | E/NE 9.3 | |
| Oggi h: 08:53 | Sereno | 28 | 26 | 88 | 1017 | 10 | E 9.3 | |
| Oggi h: 07:53 | Nuvoloso | 27 | 25 | 88 | 1016 | 10 | E 9.3 | |
| Oggi h: 06:53 | Nuvoloso | 26 | 25 | 94 | 1016 | 10 | E/NE 9.3 | |
| Oggi h: 05:53 | Poco Nuvoloso | 26 | 24 | 88 | 1016 | 10 | E/NE 7.4 | |
| Oggi h: 05:12 | Nuvoloso | 26 | 25 | 94 | 1015 | 10 | NE 7.4 | |
| Oggi h: 04:53 | Sereno | 26 | 25 | 94 | 1015 | 10 | E/NE 7.4 | |
| Oggi h: 03:53 | Sereno | 26 | 24 | 88 | 1015 | 10 | E/NE 11.1 | |
| Oggi h: 02:53 | Sereno | 26 | 24 | 88 | 1016 | 10 | NE 11.1 | |
| Oggi h: 01:53 | Sereno | 27 | 24 | 83 | 1017 | 10 | E/NE 9.3 | |
| Oggi h: 00:53 | Sereno | 27 | 24 | 83 | 1017 | 10 | E 7.4 | |
| Ieri h: 23:53 | Poco Nuvoloso | 27 | 24 | 83 | 1017 | 10 | E/NE 7.4 | |
| Ieri h: 22:53 | Sereno | 27 | 23 | 78 | 1017 | 10 | E 9.3 | |
| Ieri h: 21:53 | Sereno | 26 | 24 | 88 | 1017 | 10 | SE 7.4 | |
| Ieri h: 20:53 | Sereno | 26 | 24 | 88 | 1016 | 10 | N 0 | |
| Ieri h: 19:53 | Sereno | 26 | 24 | 88 | 1017 | 10 | SE 11.1 | |
| Ieri h: 18:53 | Pioggia | 26 | 24 | 88 | 1016 | 10 | E 13 | |
| Ieri h: 18:20 | Pioggia | 26 | 24 | 88 | 1016 | 10 | E/SE 27.8 | |
| Ieri h: 18:08 | Temporale nelle vicinanze | 27 | 24 | 83 | 1016 | 10 | E/SE 40.7 | |
| Ieri h: 17:53 | Temporale nelle vicinanze | 32 | 25 | 66 | 1016 | 10 | NE 14.8 | |
| Ieri h: 17:48 | Temporale nelle vicinanze | 32 | 25 | 66 | 1016 | 10 | N 18.5 | |
| Ieri h: 16:53 | Sereno | 32 | 24 | 62 | 1015 | 10 | N/NO 18.5 | |
| Ieri h: 15:53 | Sereno | 32 | 25 | 66 | 1015 | 10 | N 18.5 | |
| Ieri h: 15:39 | Temporale nelle vicinanze | 32 | 25 | 66 | 1016 | 10 | N/NO 16.7 | |
| Ieri h: 14:53 | Sereno | 32 | 24 | 62 | 1016 | 10 | N/NE 13 | |
| Ieri h: 13:53 | Sereno | 32 | 23 | 59 | 1017 | 10 | N 9.3 | |
| Ieri h: 12:53 | Sereno | 31 | 23 | 62 | 1018 | 10 | NE 11.1 | |
| Ieri h: 11:53 | Sereno | 31 | 25 | 70 | 1018 | 10 | E/NE 11.1 | |
| Ieri h: 10:53 | Sereno | 29 | 25 | 79 | 1018 | 10 | E/NE 7.4 | |



